| time (UTC) | temp C | wind direction | speed KPH | gust KPH | rain 1hr cm | rain 24hr cm | rain mn cm | humidity % | barometer mb |
| 20260504044003 | 8 | 0 | 0.0 | 0.0 | 0.00 | 0.00 | 0.00 | 54 | 1013.3 |
| 20260504043004 | 8 | 0 | 0.0 | 0.0 | 0.00 | 0.00 | 0.00 | 55 | 1013.3 |
| 20260504042004 | 8 | 0 | 0.0 | 0.0 | 0.00 | 0.00 | 0.00 | 53 | 1013.1 |
| 20260504041004 | 8 | 0 | 0.0 | 0.0 | 0.00 | 0.00 | 0.00 | 54 | 1013.0 |
| 20260504035004 | 8 | 0 | 0.0 | 0.0 | 0.00 | 0.00 | 0.00 | 54 | 1012.8 |
| 20260504034004 | 8 | 0 | 0.0 | 0.0 | 0.00 | 0.00 | 0.00 | 53 | 1012.8 |
| 20260504033004 | 8 | 0 | 0.0 | 0.0 | 0.00 | 0.00 | 0.00 | 53 | 1012.7 |
| 20260504032004 | 8 | 0 | 0.0 | 0.0 | 0.00 | 0.00 | 0.00 | 54 | 1012.7 |
| 20260504031004 | 8 | 0 | 0.0 | 0.0 | 0.00 | 0.00 | 0.00 | 54 | 1012.7 |
| 20260504030004 | 8 | 0 | 0.0 | 0.0 | 0.00 | 0.00 | 0.00 | 54 | 1012.6 |
| 20260504025005 | 8 | 0 | 0.0 | 0.0 | 0.00 | 0.00 | 0.00 | 54 | 1012.6 |
| 20260504024004 | 8 | 0 | 0.0 | 0.0 | 0.00 | 0.00 | 0.00 | 56 | 1012.7 |
| 20260504023004 | 9 | 0 | 0.0 | 0.0 | 0.00 | 0.00 | 0.00 | 54 | 1012.6 |
| 20260504022004 | 9 | 0 | 0.0 | 0.0 | 0.00 | 0.00 | 0.00 | 55 | 1012.6 |
| 20260504021003 | 9 | 0 | 0.0 | 0.0 | 0.00 | 0.00 | 0.00 | 54 | 1012.6 |
| 20260504020003 | 10 | 0 | 0.0 | 0.0 | 0.00 | 0.00 | 0.00 | 53 | 1012.7 |
| 20260504014003 | 10 | 0 | 0.0 | 0.0 | 0.00 | 0.00 | 0.00 | 52 | 1012.6 |
| 20260504013003 | 10 | 0 | 0.0 | 0.0 | 0.00 | 0.00 | 0.00 | 51 | 1012.6 |
| 20260504012004 | 10 | 0 | 0.0 | 0.0 | 0.00 | 0.00 | 0.00 | 51 | 1012.5 |
| 20260504011004 | 10 | 0 | 0.0 | 0.0 | 0.00 | 0.00 | 0.00 | 52 | 1012.3 |
| 20260504004004 | 11 | 0 | 0.0 | 0.0 | 0.00 | 0.00 | 0.00 | 48 | 1012.0 |
| 20260504003004 | 11 | 0 | 0.0 | 0.0 | 0.00 | 0.00 | 0.00 | 47 | 1011.9 |
| 20260504002004 | 11 | 0 | 0.0 | 0.0 | 0.00 | 0.00 | 0.00 | 47 | 1011.7 |
| 20260504000004 | 12 | 0 | 0.0 | 0.0 | 0.00 | 0.00 | 0.00 | 46 | 1011.6 |
| 20260503235003 | 12 | 0 | 0.0 | 0.0 | 0.00 | 0.00 | 0.00 | 43 | 1011.5 |
| 20260503234014 | 12 | 0 | 0.0 | 0.0 | 0.00 | 0.00 | 0.00 | 42 | 1011.3 |
| 20260503233003 | 13 | 0 | 0.0 | 0.0 | 0.00 | 0.00 | 0.00 | 43 | 1011.2 |
| 20260503232004 | 13 | 0 | 0.0 | 0.0 | 0.00 | 0.00 | 0.00 | 40 | 1011.2 |
| 20260503230004 | 14 | 0 | 0.0 | 0.0 | 0.00 | 0.00 | 0.00 | 42 | 1011.2 |
| 20260503225003 | 14 | 254 | 0.0 | 4.8 | 0.00 | 0.00 | 0.00 | 36 | 1011.2 |
| 20260503224004 | 14 | 327 | 0.0 | 4.8 | 0.00 | 0.00 | 0.00 | 36 | 1011.1 |
| 20260503223003 | 15 | 293 | 0.0 | 20.9 | 0.00 | 0.00 | 0.00 | 33 | 1011.1 |
| 20260503222003 | 15 | 306 | 0.0 | 11.3 | 0.00 | 0.00 | 0.00 | 34 | 1011.1 |
| 20260503220003 | 15 | 325 | 0.0 | 8.0 | 0.00 | 0.00 | 0.00 | 34 | 1011.1 |
| 20260503215003 | 15 | 314 | 0.0 | 4.8 | 0.00 | 0.00 | 0.00 | 32 | 1011.0 |
| 20260503214004 | 15 | 317 | 0.0 | 6.4 | 0.00 | 0.00 | 0.00 | 33 | 1011.0 |
| 20260503213003 | 16 | 313 | 1.6 | 20.9 | 0.00 | 0.00 | 0.00 | 30 | 1010.9 |
| 20260503212003 | 16 | 307 | 0.0 | 6.4 | 0.00 | 0.00 | 0.00 | 30 | 1010.9 |
| 20260503211003 | 16 | 299 | 1.6 | 22.5 | 0.00 | 0.00 | 0.00 | 30 | 1011.0 |
| 20260503210004 | 17 | 0 | 0.0 | 0.0 | 0.00 | 0.00 | 0.00 | 30 | 1010.9 |
| 20260503205003 | 16 | 328 | 0.0 | 16.1 | 0.00 | 0.00 | 0.00 | 30 | 1011.1 |
| 20260503204004 | 16 | 323 | 1.6 | 25.7 | 0.00 | 0.00 | 0.00 | 30 | 1011.1 |
| 20260503203004 | 16 | 316 | 1.6 | 24.1 | 0.00 | 0.00 | 0.00 | 32 | 1011.0 |
| 20260503202004 | 16 | 307 | 0.0 | 6.4 | 0.00 | 0.00 | 0.00 | 32 | 1011.2 |
| 20260503201004 | 15 | 282 | 0.0 | 16.1 | 0.00 | 0.00 | 0.00 | 36 | 1011.3 |
| 20260503200004 | 15 | 335 | 0.0 | 6.4 | 0.00 | 0.00 | 0.00 | 32 | 1011.5 |
| 20260503195005 | 15 | 317 | 0.0 | 11.3 | 0.00 | 0.00 | 0.00 | 33 | 1011.5 |
| 20260503194003 | 15 | 338 | 1.6 | 20.9 | 0.00 | 0.00 | 0.00 | 35 | 1011.7 |
| 20260503193004 | 14 | 317 | 0.0 | 9.7 | 0.00 | 0.00 | 0.00 | 33 | 1011.7 |
| 20260503192004 | 15 | 324 | 0.0 | 14.5 | 0.00 | 0.00 | 0.00 | 32 | 1011.8 |
| 20260503191003 | 14 | 308 | 0.0 | 4.8 | 0.00 | 0.00 | 0.00 | 35 | 1011.8 |
| 20260503190003 | 14 | 313 | 1.6 | 19.3 | 0.00 | 0.00 | 0.00 | 32 | 1011.8 |
| 20260503185004 | 14 | 310 | 0.0 | 6.4 | 0.00 | 0.00 | 0.00 | 34 | 1011.9 |
| 20260503184004 | 14 | 304 | 1.6 | 20.9 | 0.00 | 0.00 | 0.00 | 35 | 1012.0 |
| 20260503183004 | 13 | 319 | 1.6 | 22.5 | 0.00 | 0.00 | 0.00 | 35 | 1012.0 |
| 20260503182004 | 13 | 312 | 0.0 | 9.7 | 0.00 | 0.00 | 0.00 | 36 | 1012.1 |
| 20260503181004 | 13 | 299 | 1.6 | 25.7 | 0.00 | 0.00 | 0.00 | 35 | 1012.2 |
| 20260503180004 | 12 | 311 | 1.6 | 14.5 | 0.00 | 0.00 | 0.00 | 36 | 1012.3 |
| 20260503175004 | 13 | 311 | 0.0 | 3.2 | 0.00 | 0.00 | 0.00 | 38 | 1012.2 |
| 20260503172004 | 12 | 289 | 0.0 | 16.1 | 0.00 | 0.00 | 0.00 | 41 | 1012.3 |
| 20260503171004 | 12 | 285 | 0.0 | 4.8 | 0.00 | 0.00 | 0.00 | 37 | 1012.5 |
| 20260503151003 | 8 | 312 | 0.0 | 4.8 | 0.00 | 0.00 | 0.00 | 49 | 1013.4 |
| 20260503081003 | 6 | 289 | 0.0 | 1.6 | 0.00 | 0.00 | 0.00 | 57 | 1010.9 |
| 20260503072003 | 7 | 0 | 0.0 | 0.0 | 0.00 | 0.00 | 0.00 | 56 | 1010.6 |
| 20260503071004 | 7 | 314 | 0.0 | 8.0 | 0.00 | 0.00 | 0.00 | 56 | 1010.6 |